Location: Monroe
(41.3286°N, 74.1872°W)
Time: 03:04:10
(UTC+00:00)

Hubble Space Telescope - Pass Details

Date: 28 January 2026
Orbit: 477 x 479 km, 28.5° (Epoch: 14 February)

Event Time Altitude Azimuth Distance (km) Brightness Sun altitude
Rises 22:46:00 0° 232° (SW) 2,510 5.7 -7.5°
Reaches altitude 10° 22:49:31 10° 198° (SSW) 1,634 3.7 -8.1°
Maximum altitude 22:50:48 12° 178° (S) 1,543 3.3 -8.3°
Drops below altitude 10° 22:52:07 10° 157° (SSE) 1,635 3.2 -8.6°
Enters shadow 22:55:18 - 125° (SE) 2,414 3.7 -9.1°
